HULIANWANG DIGUI-140

导读 | 豆包AI

“HULIANWANG DIGUI-140”是中国于2026年1月13日发射的低轨卫星,归属互联网卫星星座体系,承担低轨宽带互联网覆盖服务任务。依托中国航天成熟发射技术入轨后,该卫星将补充星座网络节点,扩展全球网络覆盖范围,为偏远地区、海洋空域等场景提供高速网络连接支撑,助力天地一体化网络构建。

Basic Information
目录编号:
67438
目录名称:
HULIANWANG DIGUI-140
国际标识:
2026-007D
轨道中心:
EARTH
卫星名称:
HULIANWANG DIGUI-140
卫星全名:
HULIANWANG DIGUI-140
卫星状态:
在轨 (已飞行81 天)
发射日期:
2026-01-13 UTC
国别 :
中国 (CN)
星等 :
--
Orbit Information
数据来源 国际轨道数据 AOE轨道数据
星历时间 2026-04-03T18:51:40+0800
16小时前
查看轨道信息
2026-04-03T00:00:00+0800
1天前
查看轨道信息
半长轴 7527.434km 7527.432km
偏心率 0.0000289 0.0000206
轨道倾角 50.008° 50.008°
近地点辐角 92.778° 34.522°
升交点赤经 354.066° 356.884°
平近点角 267.313° 162.362°
近地点 1149.079km 1149.139km
远地点 1149.515km 1149.451km
周期 108.325分钟 108.325分钟
每日圈数 13.293288 13.293293
Detailed Information
使用方式:
暂无
2D Orbit Map
3D Orbit Map
Orbit Altitude Analysis Chart
Orbit Inclination Analysis Chart
Orbit Comprehensive Analysis Chart
View Comprehensive Chart